NY5V Weather Reports


Display with metric or nautical units.
time (UTC)temp
F
wind
direction
speed
MPH
gust
MPH
rain 1hr
in
rain 24hr
in
rain mn
in
humidity
%
barometer
mb
20260831213851 98 345 1.0 2.0 0.00 0.00 0.00 40 1014.7
20260831212849 98 55 0.0 0.0 0.00 0.00 0.00 40 1014.5
20260831211844 98 92 0.0 0.0 0.00 0.00 0.00 40 1014.7
20260831210844 98 74 0.0 1.0 0.00 0.00 0.00 40 1014.7
20260831205841 99 36 1.0 2.0 0.00 0.00 0.00 40 1015.0
20260831204837 99 52 1.0 1.0 0.00 0.00 0.00 39 1015.2
20260831203835 98 61 1.0 1.0 0.00 0.00 0.00 39 1015.4
20260831202835 97 61 0.0 1.0 0.00 0.00 0.00 41 1015.6
20260831201829 99 54 1.0 1.0 0.00 0.00 0.00 42 1015.8
20260831200824 98 50 0.0 0.0 0.00 0.00 0.00 44 1016.0
20260831195821 99 57 0.0 0.0 0.00 0.00 0.00 41 1016.0
20260831194818 98 53 1.0 1.0 0.00 0.00 0.00 41 1016.1
20260831193817 98 55 2.0 3.0 0.00 0.00 0.00 42 1016.3
20260831192814 97 29 1.0 2.0 0.00 0.00 0.00 45 1016.6
20260831191810 98 82 1.0 2.0 0.00 0.00 0.00 44 1016.5
20260831190808 97 344 3.0 3.0 0.00 0.00 0.00 44 1016.4
20260831185807 97 55 1.0 1.0 0.00 0.00 0.00 45 1016.8
20260831184807 97 62 1.0 1.0 0.00 0.00 0.00 46 1016.7
20260831183804 96 82 2.0 2.0 0.00 0.00 0.00 46 1016.8
20260831182803 95 102 2.0 3.0 0.00 0.00 0.00 47 1016.9
20260831181759 99 33 1.0 1.0 0.00 0.00 0.00 45 1017.1
20260831180754 96 63 0.0 1.0 0.00 0.00 0.00 46 1017.5
20260831175754 96 44 0.0 1.0 0.00 0.00 0.00 48 1017.4
20260831174752 100 43 1.0 2.0 0.00 0.00 0.00 44 1017.3
20260831173746 96 45 0.0 0.0 0.00 0.00 0.00 48 1017.7
20260831172742 96 44 1.0 2.0 0.00 0.00 0.00 47 1017.8
20260831171737 96 65 0.0 1.0 0.00 0.00 0.00 48 1018.3
20260831170737 96 83 2.0 2.0 0.00 0.00 0.00 48 1018.1
20260831165735 96 55 1.0 1.0 0.00 0.00 0.00 48 1018.2
20260831164732 95 27 2.0 2.0 0.00 0.00 0.00 49 1018.5
20260831163729 93 39 0.0 1.0 0.00 0.00 0.00 51 1018.4
20260831162724 92 38 2.0 2.0 0.00 0.00 0.00 51 1018.7
20260831161724 93 16 1.0 2.0 0.00 0.00 0.00 53 1018.6
20260831160720 92 349 2.0 2.0 0.00 0.00 0.00 53 1018.5
20260831155715 90 47 0.0 0.0 0.00 0.00 0.00 55 1018.5
20260831154712 90 25 2.0 3.0 0.00 0.00 0.00 57 1018.5
20260831153712 89 37 1.0 1.0 0.00 0.00 0.00 60 1018.6
20260831152710 88 46 0.0 0.0 0.00 0.00 0.00 62 1018.3
20260831151706 88 345 2.0 2.0 0.00 0.00 0.00 62 1018.2
20260831150701 88 48 1.0 1.0 0.00 0.00 0.00 64 1018.2
20260831145702 86 57 0.0 1.0 0.00 0.00 0.00 67 1018.4
20260831144659 85 45 1.0 1.0 0.00 0.00 0.00 69 1018.2
20260831143654 84 328 2.0 3.0 0.00 0.00 0.00 73 1018.4
20260831142652 83 21 1.0 2.0 0.00 0.00 0.00 75 1018.2
20260831141652 82 262 2.0 2.0 0.00 0.00 0.00 77 1018.2
20260831140652 81 49 1.0 1.0 0.00 0.00 0.00 78 1018.2
20260831135650 81 46 0.0 0.0 0.00 0.00 0.00 79 1018.0
20260831134648 80 31 1.0 1.0 0.00 0.00 0.00 79 1018.0
20260831133648 80 43 1.0 1.0 0.00 0.00 0.00 78 1017.9
20260831132645 80 34 1.0 2.0 0.00 0.00 0.00 79 1017.8
20260831131645 79 44 0.0 0.0 0.00 0.00 0.00 81 1017.8
20260831130642 79 43 0.0 0.0 0.00 0.00 0.00 81 1017.6
20260831125642 78 44 0.0 0.0 0.00 0.00 0.00 81 1017.4
20260831124639 77 46 0.0 0.0 0.00 0.00 0.00 82 1017.2
20260831123635 77 42 0.0 0.0 0.00 0.00 0.00 82 1017.1
20260831122634 77 47 0.0 0.0 0.00 0.00 0.00 82 1017.0
20260831121629 77 48 0.0 0.0 0.00 0.00 0.00 80 1017.0
20260831120626 78 10 1.0 2.0 0.00 0.00 0.00 79 1016.8
20260831115623 78 38 0.0 0.0 0.00 0.00 0.00 79 1016.6
20260831114623 78 31 2.0 2.0 0.00 0.00 0.00 78 1016.5
20260831113618 78 37 1.0 1.0 0.00 0.00 0.00 77 1016.3
20260831112618 78 37 1.0 2.0 0.00 0.00 0.00 76 1016.4
20260831111615 79 45 0.0 0.0 0.00 0.00 0.00 76 1016.3
20260831110612 78 40 0.0 0.0 0.00 0.00 0.00 76 1016.3
20260831105613 78 44 0.0 0.0 0.00 0.00 0.00 76 1016.4
20260831104609 78 44 0.0 0.0 0.00 0.00 0.00 77 1016.4
20260831103606 78 41 1.0 1.0 0.00 0.00 0.00 76 1016.4
20260831102602 78 46 0.0 0.0 0.00 0.00 0.00 76 1016.3
20260831101557 79 47 0.0 0.0 0.00 0.00 0.00 75 1016.3
20260831100555 79 46 0.0 0.0 0.00 0.00 0.00 75 1016.3
20260831095549 79 42 0.0 0.0 0.00 0.00 0.00 73 1016.3
20260831094546 80 63 0.0 1.0 0.00 0.00 0.00 72 1016.2
20260831093542 80 48 0.0 0.0 0.00 0.00 0.00 72 1016.4
20260831092540 80 46 0.0 0.0 0.00 0.00 0.00 72 1016.3
20260831091536 80 44 0.0 0.0 0.00 0.00 0.00 72 1016.1
20260831090532 80 49 0.0 0.0 0.00 0.00 0.00 71 1015.9
20260831085529 80 49 0.0 0.0 0.00 0.00 0.00 70 1016.1
20260831084526 81 44 0.0 0.0 0.00 0.00 0.00 69 1016.0
20260831083523 81 46 0.0 0.0 0.00 0.00 0.00 68 1015.9
20260831082523 81 359 3.0 3.0 0.00 0.00 0.00 67 1016.1
20260831081520 81 19 2.0 2.0 0.00 0.00 0.00 68 1016.0
20260831080516 82 47 0.0 0.0 0.00 0.00 0.00 67 1015.9
20260831075513 82 46 0.0 0.0 0.00 0.00 0.00 67 1016.0
20260831074508 82 47 0.0 0.0 0.00 0.00 0.00 66 1016.2
20260831073508 82 43 0.0 0.0 0.00 0.00 0.00 65 1016.1
20260831072503 82 26 1.0 1.0 0.00 0.00 0.00 65 1015.8
20260831071458 82 48 0.0 0.0 0.00 0.00 0.00 65 1015.9
20260831070458 82 45 0.0 0.0 0.00 0.00 0.00 66 1016.0
20260831065456 82 49 0.0 0.0 0.00 0.00 0.00 65 1016.0
20260831064452 83 48 0.0 0.0 0.00 0.00 0.00 64 1016.1
20260831063449 83 47 0.0 1.0 0.00 0.00 0.00 63 1016.2
20260831062445 84 35 1.0 1.0 0.00 0.00 0.00 61 1016.4
20260831061442 84 51 0.0 0.0 0.00 0.00 0.00 61 1016.1
20260831060439 84 29 1.0 1.0 0.00 0.00 0.00 59 1015.9
20260831055439 84 50 0.0 1.0 0.00 0.00 0.00 60 1015.9
20260831054435 84 52 0.0 1.0 0.00 0.00 0.00 60 1015.8
20260831053433 84 53 0.0 0.0 0.00 0.00 0.00 60 1015.8
20260831052427 84 49 0.0 0.0 0.00 0.00 0.00 61 1015.7
20260831051424 84 40 0.0 0.0 0.00 0.00 0.00 61 1015.7
20260831050419 85 48 0.0 0.0 0.00 0.00 0.00 60 1015.5
20260831045417 85 46 0.0 0.0 0.00 0.00 0.00 59 1015.5
20260831044413 86 46 0.0 0.0 0.00 0.00 0.00 58 1015.7
20260831043408 86 47 0.0 0.0 0.00 0.00 0.00 58 1015.5
20260831042403 86 47 0.0 0.0 0.00 0.00 0.00 56 1015.5
20260831041358 86 36 0.0 1.0 0.00 0.00 0.00 56 1015.4
20260831040353 86 49 0.0 1.0 0.00 0.00 0.00 56 1015.2
20260831035350 85 25 0.0 0.0 0.00 0.00 0.00 58 1015.1
20260831034346 84 44 0.0 0.0 0.00 0.00 0.00 63 1015.1
20260831033342 84 45 0.0 0.0 0.00 0.00 0.00 64 1014.8
20260831032337 85 45 0.0 0.0 0.00 0.00 0.00 60 1014.7
20260831031332 85 45 0.0 0.0 0.00 0.00 0.00 61 1014.9
20260831030331 85 46 0.0 0.0 0.00 0.00 0.00 59 1014.6
20260831025331 85 45 0.0 0.0 0.00 0.00 0.00 59 1014.5
20260831024331 85 44 0.0 0.0 0.00 0.00 0.00 58 1014.5
20260831023330 85 44 0.0 0.0 0.00 0.00 0.00 58 1014.4
20260831022324 85 44 0.0 0.0 0.00 0.00 0.00 57 1014.3
20260831021324 86 44 0.0 0.0 0.00 0.00 0.00 57 1014.1
20260831020320 86 44 0.0 0.0 0.00 0.00 0.00 55 1013.8
20260831015317 87 46 0.0 0.0 0.00 0.00 0.00 55 1013.8
20260831014312 87 44 0.0 0.0 0.00 0.00 0.00 55 1013.8
20260831013307 87 46 0.0 0.0 0.00 0.00 0.00 54 1013.7
20260831012306 88 44 0.0 0.0 0.00 0.00 0.00 55 1013.6
20260831011305 89 44 0.0 0.0 0.00 0.00 0.00 53 1013.4
20260831010300 90 45 0.0 0.0 0.00 0.00 0.00 52 1013.4
20260831005258 91 47 0.0 0.0 0.00 0.00 0.00 48 1013.3
20260831004254 93 44 0.0 0.0 0.00 0.00 0.00 48 1013.4
20260831003251 94 47 0.0 0.0 0.00 0.00 0.00 44 1013.2
20260831002250 95 51 0.0 0.0 0.00 0.00 0.00 42 1013.4
20260831001247 96 51 0.0 0.0 0.00 0.00 0.00 42 1013.4
20260831000244 97 52 0.0 0.0 0.00 0.00 0.00 41 1013.4
20260830235244 97 52 0.0 0.0 0.00 0.00 0.00 39 1013.3
20260830234241 98 57 0.0 0.0 0.00 0.00 0.00 40 1013.3
20260830233237 98 53 0.0 0.0 0.00 0.00 0.00 39 1013.5
20260830232235 98 53 0.0 0.0 0.00 0.00 0.00 39 1013.6
20260830231230 99 47 0.0 0.0 0.00 0.00 0.00 38 1013.5
20260830230226 99 54 0.0 0.0 0.00 0.00 0.00 39 1013.5
20260830225227 99 39 0.0 0.0 0.00 0.00 0.00 38 1013.4
20260830224221 99 68 0.0 0.0 0.00 0.00 0.00 39 1013.5
20260830223219 99 75 1.0 1.0 0.00 0.00 0.00 38 1013.6
20260830222215 99 53 0.0 0.0 0.00 0.00 0.00 39 1013.6
20260830221214 100 53 0.0 1.0 0.00 0.00 0.00 38 1013.6
20260830220213 98 24 0.0 1.0 0.00 0.00 0.00 40 1013.8
20260830215213 99 66 1.0 1.0 0.00 0.00 0.00 38 1013.8